Regional Weather Roundup
Issued by NWS

Home | Current Version | Previous Version | Graphics & Text | Print | Product List | Glossary On
Versions: 1 2 3 4 5 6 7 8 9 10 11 12 13 14 15 16 17 18 19 20 21 22 23 24 25 26 27 28 29 30 31 32 33 34 35 36 37 38 39 40 41 42 43 44 45 46 47 48 49 50
000
ASUS43 KBIS 270902
RWRND

NORTH DAKOTA REGIONAL WEATHER ROUNDUP
NATIONAL WEATHER SERVICE BISMARCK ND
400 AM CDT FRI MAY 27 2016

NOTE: "FAIR" INDICATES FEW OR NO CLOUDS BELOW 12,000 FEET WITH NO
SIGNIFICANT WEATHER AND/OR OBSTRUCTIONS TO VISIBILITY.


NDZ001>003-009>011-017-271000-
NORTHWEST NORTH DAKOTA

CITY           SKY/WX    TMP DP  RH WIND       PRES   REMARKS
WILLISTON      PTCLDY    48  46  93 NE7       29.87R
MINOT          CLOUDY    57  54  89 W5        29.82S
MINOT AFB      CLOUDY    54  53  98 W1        29.82S
$$

NDZ018>021-031>035-040>046-271000-
SOUTHWEST NORTH DAKOTA

CITY           SKY/WX    TMP DP  RH WIND       PRES   REMARKS
BISMARCK       CLEAR     48  46  93 CALM      29.83S
DICKINSON      CLEAR     39  37  92 W5        29.83F
GARRISON         N/A     52  50  93 NW5       29.84S
HETTINGER ARPT CLEAR     34  33  96 W3        29.87R
$$

NDZ004>008-012>016-024-026-027-054-271000-
NORTHEAST NORTH DAKOTA

CITY           SKY/WX    TMP DP  RH WIND       PRES   REMARKS
GRAND FORKS    CLOUDY    54  52  93 NW5       29.78F
GRND FRKS AFB  PTCLDY    51  51 100 N5        29.79F FOG
DEVILS LAKE    PTCLDY    49  48  97 CALM      29.82S FOG
$$

NDZ022-023-025-028>030-036>039-047>053-271000-
SOUTHEAST NORTH DAKOTA

CITY           SKY/WX    TMP DP  RH WIND       PRES   REMARKS
FARGO          CLEAR     57  53  86 E9        29.76F
JAMESTOWN      CLEAR     52  52 100 CALM      29.79F
$$





USA.gov is the U.S. government's official web portal to all federal, state and local government web resources and services.